Weather History for KCEZ - June, 2013

Change the Weather History Date:

Tuesday, June 11, 2013

  Actual Average Record
Temperature  
Mean Temperature 70 °F 63 °F  
Max Temperature 90 °F 84 °F 90 °F (2001)
Min Temperature 50 °F 43 °F 33 °F (2005)
Degree Days  
Heating Degree Days 0 3  
Month to date heating degree days 12 49  
Since 1 June heating degree days 12 49  
Since 1 July heating degree days 6406 6416  
Cooling Degree Days 5 1  
Month to date cooling degree days 27 11  
Year to date cooling degree days 27 16  
Since 1 June cooling degree days 27 11  
Growing Degree Days 20 (Base 50)    
Moisture  
Dew Point 20 °F    
Average Humidity 21    
Maximum Humidity 35    
Minimum Humidity 7    
Precipitation  
Precipitation 0.00 in 0.01 in 0.08 in (2005)
Month to date precipitation T 0.20  
Year to date precipitation 3.33 5.34  
Sea Level Pressure  
Sea Level Pressure 29.86 in    
Wind  
Wind Speed 10 mph (WSW)    
Max Wind Speed 23 mph    
Max Gust Speed 40 mph    
Visibility 10 miles    
Events      
T = Trace of Precipitation, MM = Missing Value Source: NWS Daily Summary

Daily Weather History Graph

Daily Weather History Graph

Search for Another Location

Airport or City:

Trip Planner

Search our weather history database for the weather conditions in past years. The results will help you decide how hot, cold, wet, or windy it might be!

Date:

Astronomy

Jun. 11, 2013 Rise Set
Actual Time 5:53 AM MDT 8:35 PM MDT
Civil Twilight 5:22 AM MDT 9:06 PM MDT
Nautical Twilight 4:44 AM MDT 9:44 PM MDT
Astronomical Twilight 4:00 AM MDT 10:28 PM MDT
Moon 8:36 AM MDT (6/11) 10:43 PM MDT (6/11)
Length of Visible Light 15h 43m
Length of Day
14h 41m
Waxing Crescent, 8% of the Moon is Illuminated
Jun 11
Waxing Crescent
Jun 16
First Quarter
Jun 23
Full
Jun 29
Last Quarter
Jul 8
New

Hourly Weather History & Observations

Time (MDT) Temp. Dew Point Humidity Pressure Visibility Wind Dir Wind Speed Gust Speed Precip Events Conditions
12:53 AM 61.0 °F 25.0 °F 25% 29.81 in 10.0 mi Calm Calm - N/A   Clear
1:53 AM 72.0 °F 16.0 °F 12% 29.78 in 10.0 mi SSW 13.8 mph - N/A   Clear
2:53 AM 66.0 °F 18.0 °F 16% 29.81 in 10.0 mi South 10.4 mph - N/A   Clear
3:53 AM 63.0 °F 18.0 °F 18% 29.82 in 10.0 mi ENE 5.8 mph - N/A   Clear
4:53 AM 55.0 °F 23.0 °F 29% 29.87 in 10.0 mi NE 8.1 mph - N/A   Clear
5:53 AM 51.1 °F 24.1 °F 35% 29.88 in 10.0 mi NE 8.1 mph - N/A   Clear
6:53 AM 54.0 °F 24.1 °F 31% 29.90 in 10.0 mi ENE 4.6 mph - N/A   Clear
7:53 AM 64.0 °F 30.0 °F 28% 29.89 in 10.0 mi Calm Calm - N/A   Clear
8:53 AM 75.0 °F 23.0 °F 14% 29.87 in 10.0 mi Calm Calm - N/A   Clear
9:53 AM 81.0 °F 16.0 °F 9% 29.87 in 10.0 mi SW 11.5 mph - N/A   Clear
10:53 AM 84.0 °F 17.1 °F 8% 29.87 in 10.0 mi SSW 17.3 mph 26.5 mph N/A   Clear
11:53 AM 86.0 °F 19.0 °F 8% 29.89 in 10.0 mi SW 18.4 mph 27.6 mph N/A   Clear
12:53 PM 87.1 °F 17.1 °F 8% 29.89 in 10.0 mi SSW 13.8 mph 25.3 mph N/A   Clear
1:53 PM 88.0 °F 18.0 °F 8% 29.85 in 10.0 mi SW 18.4 mph 25.3 mph N/A   Clear
2:53 PM 89.1 °F 21.9 °F 9% 29.84 in 10.0 mi West 16.1 mph 26.5 mph N/A   Clear
3:53 PM 90.0 °F 17.1 °F 7% 29.84 in 10.0 mi SW 15.0 mph 27.6 mph N/A   Clear
4:53 PM 89.1 °F 18.0 °F 7% 29.86 in 10.0 mi West 18.4 mph 26.5 mph N/A   Clear
5:53 PM 87.1 °F 18.0 °F 8% 29.87 in 10.0 mi WNW 11.5 mph 18.4 mph N/A   Clear
6:53 PM 87.1 °F 17.1 °F 8% 29.86 in 10.0 mi WNW 13.8 mph 20.7 mph N/A   Clear
7:53 PM 84.0 °F 17.1 °F 8% 29.85 in 10.0 mi West 9.2 mph - N/A   Clear
8:53 PM 75.9 °F 18.0 °F 11% 29.86 in 10.0 mi WSW 4.6 mph - N/A   Clear
9:53 PM 63.0 °F 26.1 °F 25% 29.90 in 10.0 mi NE 4.6 mph - N/A   Clear
10:53 PM 60.1 °F 24.1 °F 25% 29.92 in 10.0 mi ENE 9.2 mph - N/A   Clear
11:53 PM 59.0 °F 23.0 °F 25% 29.92 in 10.0 mi ENE 5.8 mph - N/A   Clear